INTELSAT 31 (IS-31)

Last updated on Sun Nov 16 2025 00:03:43 GMT+0000 (Coordinated Universal Time)

1 41581U 16035A 25319.43328839 -.00000144 00000+0 00000+0 0 9992 2 41581 0.0134 261.5884 0001678 322.5281 251.5807 1.00271643 34546
UTC large
Height (km)
Speed (km/s)
/
Latitude / Longitude
Inclination (degrees)
Orbital Period (minutes)
Azimuth
Elevation
Range (km)
Doppler Factor

Next 0 passes for location: London (51.5072 / 0.1276)

Sorry there are no passes over London.